GW4858 Weather Reports


time (UTC)temp
C
wind
direction
speed
KPH
gust
KPH
rain 1hr
cm
rain 24hr
cm
rain mn
cm
humidity
%
barometer
mb
20260504214018 19 351 3.2 9.7 0.00 0.00 0.00 53 1013.2
20260504213514 20 164 4.8 6.4 0.00 0.00 0.00 53 1013.2
20260504213012 19 115 3.2 6.4 0.00 0.00 0.00 53 1013.1
20260504212507 19 295 3.2 6.4 0.00 0.00 0.00 53 1013.1
20260504212005 20 155 3.2 11.3 0.00 0.00 0.00 52 1013.2
20260504211501 20 180 4.8 9.7 0.00 0.00 0.00 51 1013.1
20260504210959 20 210 6.4 12.9 0.00 0.00 0.00 50 1013.1
20260504210456 20 176 3.2 9.7 0.00 0.00 0.00 50 1013.0
20260504205952 20 141 8.0 9.7 0.00 0.00 0.00 50 1013.1
20260504205450 20 240 6.4 11.3 0.00 0.00 0.00 50 1013.1
20260504204948 20 166 6.4 9.7 0.00 0.00 0.00 49 1013.1
20260504204446 20 283 4.8 9.7 0.00 0.00 0.00 49 1012.9
20260504203945 20 198 6.4 11.3 0.00 0.00 0.00 49 1013.0
20260504203442 20 184 6.4 11.3 0.00 0.00 0.00 50 1012.9
20260504202938 20 331 3.2 11.3 0.00 0.00 0.00 49 1012.9
20260504202435 20 301 3.2 9.7 0.00 0.00 0.00 51 1012.9
20260504201932 20 109 6.4 6.4 0.00 0.00 0.00 51 1013.0
20260504201429 20 254 6.4 9.7 0.00 0.00 0.00 50 1012.8
20260504200926 20 174 3.2 9.7 0.00 0.00 0.00 52 1012.9
20260504200423 20 216 6.4 11.3 0.00 0.00 0.00 52 1013.0
20260504195920 20 195 3.2 6.4 0.00 0.00 0.00 52 1013.0
20260504195416 20 190 4.8 6.4 0.00 0.00 0.00 51 1013.2
20260504194912 20 162 4.8 6.4 0.00 0.00 0.00 50 1013.4
20260504194408 20 172 3.2 6.4 0.00 0.00 0.00 50 1013.2
20260504193904 21 241 1.6 6.4 0.00 0.00 0.00 49 1013.3
20260504193402 21 244 3.2 6.4 0.00 0.00 0.00 47 1013.4
20260504192900 21 246 1.6 9.7 0.00 0.00 0.00 46 1013.2
20260504192357 22 144 8.0 9.7 0.00 0.00 0.00 45 1013.3
20260504191856 23 226 3.2 4.8 0.00 0.00 0.00 34 1013.6
20260504191354 23 273 8.0 11.3 0.00 0.00 0.00 32 1013.6
20260504190849 23 303 6.4 12.9 0.00 0.00 0.00 33 1013.7
20260504190345 23 335 3.2 3.2 0.00 0.00 0.00 33 1013.6
20260504185842 23 264 4.8 12.9 0.00 0.00 0.00 32 1013.9
20260504185339 23 353 3.2 6.4 0.00 0.00 0.00 33 1013.6
20260504184834 23 188 4.8 9.7 0.00 0.00 0.00 34 1013.7
20260504184331 22 88 3.2 6.4 0.00 0.00 0.00 33 1013.8
20260504183826 22 196 8.0 14.5 0.00 0.00 0.00 33 1013.9
20260504183324 23 203 14.5 17.7 0.00 0.00 0.00 33 1014.0
20260504182822 23 247 1.6 11.3 0.00 0.00 0.00 35 1014.0
20260504182319 23 112 6.4 6.4 0.00 0.00 0.00 33 1014.2
20260504181816 22 333 3.2 11.3 0.00 0.00 0.00 34 1014.2
20260504181314 22 252 1.6 9.7 0.00 0.00 0.00 34 1014.2
20260504180812 22 265 3.2 9.7 0.00 0.00 0.00 34 1014.3
20260504180310 22 316 1.6 4.8 0.00 0.00 0.00 35 1014.5
20260504175808 22 338 3.2 16.1 0.00 0.00 0.00 34 1014.2
20260504175305 22 162 3.2 6.4 0.00 0.00 0.00 35 1014.4
20260504174803 22 176 3.2 9.7 0.00 0.00 0.00 34 1014.5
20260504174300 22 283 4.8 9.7 0.00 0.00 0.00 35 1014.5
20260504173756 22 237 1.6 6.4 0.00 0.00 0.00 35 1014.6
20260504173253 21 322 1.6 12.9 0.00 0.00 0.00 35 1014.8
20260504172750 22 111 4.8 16.1 0.00 0.00 0.00 34 1014.8
20260504172247 22 279 1.6 3.2 0.00 0.00 0.00 36 1014.7
20260504171743 22 347 3.2 4.8 0.00 0.00 0.00 35 1014.9
20260504171240 21 292 1.6 11.3 0.00 0.00 0.00 35 1015.1
20260504170737 21 195 6.4 17.7 0.00 0.00 0.00 34 1014.9
20260504170234 21 234 11.3 16.1 0.00 0.00 0.00 34 1015.0
20260504160153 21 278 3.2 12.9 0.00 0.00 0.00 37 1015.8
20260504151120 20 322 3.2 4.8 0.00 0.00 0.00 38 1016.2
20260504150618 20 245 4.8 9.7 0.00 0.00 0.00 38 1016.3
20260504150115 19 241 4.8 11.3 0.00 0.00 0.00 39 1016.3
20260504141043 18 248 1.6 24.1 0.00 0.00 0.00 40 1016.7
20260504140540 18 311 3.2 9.7 0.00 0.00 0.00 41 1016.5
20260504130504 16 307 1.6 3.2 0.00 0.00 0.00 53 1017.1
20260504110351 10 326 1.6 12.9 0.00 0.00 0.00 67 1017.9
20260504100309 9 268 1.6 9.7 0.00 0.00 0.00 64 1017.8
20260504081702 8 268 0.0 11.3 0.00 0.00 0.00 60 1017.5
20260504081158 8 312 0.0 1.6 0.00 0.00 0.00 61 1017.4
20260504080655 8 228 0.0 1.6 0.00 0.00 0.00 61 1017.3
20260504080152 8 325 0.0 0.0 0.00 0.00 0.00 60 1017.3
20260504070119 8 290 0.0 1.6 0.00 0.00 0.00 59 1017.1
20260504050508 8 352 0.0 1.6 0.00 0.00 0.00 56 1016.8
20260504050005 8 319 0.0 1.6 0.00 0.00 0.00 56 1016.7
20260504045501 8 325 0.0 0.0 0.00 0.00 0.00 55 1016.7
20260504044957 8 326 0.0 0.0 0.00 0.00 0.00 55 1016.8
20260504044454 9 328 0.0 0.0 0.00 0.00 0.00 55 1016.7
20260504043951 9 323 0.0 1.6 0.00 0.00 0.00 55 1016.6
20260504043448 8 312 0.0 3.2 0.00 0.00 0.00 55 1016.8
20260504042946 8 323 0.0 1.6 0.00 0.00 0.00 55 1016.8
20260504042442 8 277 1.6 1.6 0.00 0.00 0.00 56 1016.5
20260504041939 8 325 0.0 1.6 0.00 0.00 0.00 56 1016.7
20260504041435 8 315 0.0 1.6 0.00 0.00 0.00 56 1016.8
20260504040931 8 317 0.0 0.0 0.00 0.00 0.00 56 1016.6
20260504040429 8 319 0.0 0.0 0.00 0.00 0.00 56 1016.6
20260504035925 8 316 0.0 1.6 0.00 0.00 0.00 56 1016.6
20260504035423 8 315 0.0 0.0 0.00 0.00 0.00 55 1016.3
20260504034919 8 324 0.0 0.0 0.00 0.00 0.00 55 1016.3
20260504034417 8 320 0.0 0.0 0.00 0.00 0.00 54 1016.4
20260504033914 8 320 0.0 0.0 0.00 0.00 0.00 54 1016.3
20260504033412 9 320 0.0 0.0 0.00 0.00 0.00 54 1016.1
20260504032908 8 314 1.6 4.8 0.00 0.00 0.00 55 1016.4
20260504032405 8 338 0.0 0.0 0.00 0.00 0.00 55 1016.2
20260504031901 8 257 1.6 1.6 0.00 0.00 0.00 55 1016.2
20260504031359 8 276 1.6 1.6 0.00 0.00 0.00 56 1016.3
20260504030855 8 289 0.0 1.6 0.00 0.00 0.00 56 1016.3
20260504030353 8 293 0.0 0.0 0.00 0.00 0.00 56 1016.1
20260504025848 8 323 0.0 0.0 0.00 0.00 0.00 56 1016.1
20260504025346 8 327 0.0 0.0 0.00 0.00 0.00 55 1016.1
20260504024842 8 340 0.0 0.0 0.00 0.00 0.00 55 1016.2
20260504024339 8 324 0.0 0.0 0.00 0.00 0.00 55 1016.2
20260504023836 8 320 0.0 0.0 0.00 0.00 0.00 56 1016.3
20260504023333 8 323 0.0 0.0 0.00 0.00 0.00 56 1016.2
20260504022828 8 318 0.0 0.0 0.00 0.00 0.00 56 1016.2
20260504022325 8 324 0.0 0.0 0.00 0.00 0.00 56 1016.3
20260504021821 8 321 0.0 1.6 0.00 0.00 0.00 56 1016.3
20260504021319 8 325 0.0 0.0 0.00 0.00 0.00 56 1016.2
20260504020816 8 324 0.0 0.0 0.00 0.00 0.00 56 1016.3
20260504020313 8 319 0.0 0.0 0.00 0.00 0.00 56 1016.3
20260504015809 8 328 0.0 0.0 0.00 0.00 0.00 56 1016.2
20260504015305 8 320 0.0 0.0 0.00 0.00 0.00 55 1016.3
20260504014801 8 322 0.0 0.0 0.00 0.00 0.00 55 1016.3
20260504014257 8 321 0.0 0.0 0.00 0.00 0.00 54 1016.0
20260504013755 8 315 0.0 0.0 0.00 0.00 0.00 54 1016.1
20260504013253 8 319 0.0 0.0 0.00 0.00 0.00 53 1016.0
20260504012749 8 322 0.0 0.0 0.00 0.00 0.00 52 1016.0
20260504012247 8 322 0.0 0.0 0.00 0.00 0.00 52 1016.0
20260504011744 9 317 0.0 0.0 0.00 0.00 0.00 52 1016.0
20260504011240 9 320 0.0 0.0 0.00 0.00 0.00 51 1015.8
20260504010736 9 319 0.0 0.0 0.00 0.00 0.00 50 1015.6
20260504010232 9 320 0.0 0.0 0.00 0.00 0.00 50 1015.6
20260504005729 10 321 0.0 0.0 0.00 0.00 0.00 49 1015.5
20260504005226 10 323 0.0 0.0 0.00 0.00 0.00 48 1015.5
20260504004724 10 319 0.0 0.0 0.00 0.00 0.00 48 1015.3
20260504004221 10 315 0.0 0.0 0.00 0.00 0.00 47 1015.3
20260504003717 10 318 0.0 0.0 0.00 0.00 0.00 46 1015.4
20260504003214 10 317 0.0 0.0 0.00 0.00 0.00 45 1015.3
20260504002711 11 319 0.0 0.0 0.00 0.00 0.00 44 1015.2
20260504002208 11 319 0.0 0.0 0.00 0.00 0.00 43 1015.1
20260504001706 11 318 0.0 0.0 0.00 0.00 0.00 42 1014.9
20260504001202 12 314 0.0 0.0 0.00 0.00 0.00 41 1014.9
20260504000659 12 313 0.0 0.0 0.00 0.00 0.00 40 1014.9
20260504000156 12 317 0.0 0.0 0.00 0.00 0.00 39 1014.7
20260503235654 12 321 0.0 0.0 0.00 0.00 0.00 38 1014.8
20260503235151 13 321 0.0 0.0 0.00 0.00 0.00 37 1014.8
20260503234649 13 309 0.0 1.6 0.00 0.00 0.00 36 1014.5
20260503234147 13 314 0.0 1.6 0.00 0.00 0.00 36 1014.7
20260503233643 13 319 0.0 3.2 0.00 0.00 0.00 36 1014.5
20260503233139 13 241 0.0 1.6 0.00 0.00 0.00 35 1014.6
20260503232636 14 330 0.0 1.6 0.00 0.00 0.00 35 1014.5
20260503232133 14 285 1.6 1.6 0.00 0.00 0.00 34 1014.7
20260503231632 14 250 1.6 3.2 0.00 0.00 0.00 34 1014.6
20260503231127 15 337 0.0 4.8 0.00 0.00 0.00 33 1014.6
20260503230625 15 350 0.0 4.8 0.00 0.00 0.00 33 1014.4
20260503230122 15 341 1.6 3.2 0.00 0.00 0.00 33 1014.4
20260503225620 15 210 0.0 3.2 0.00 0.00 0.00 33 1014.4
20260503225119 15 345 3.2 3.2 0.00 0.00 0.00 33 1014.3
20260503224617 15 350 4.8 4.8 0.00 0.00 0.00 33 1014.3
20260503224114 15 227 3.2 9.7 0.00 0.00 0.00 33 1014.2
20260503223612 15 283 1.6 3.2 0.00 0.00 0.00 33 1014.2
20260503223108 15 295 0.0 4.8 0.00 0.00 0.00 33 1014.1
20260503222606 15 318 1.6 9.7 0.00 0.00 0.00 33 1014.1
20260503222103 15 318 1.6 11.3 0.00 0.00 0.00 33 1014.3
20260503221601 15 339 1.6 6.4 0.00 0.00 0.00 32 1014.1
20260503221058 15 339 6.4 11.3 0.00 0.00 0.00 33 1014.2
20260503220554 15 233 3.2 6.4 0.00 0.00 0.00 32 1014.2
20260503220052 15 336 1.6 3.2 0.00 0.00 0.00 32 1014.0
20260503215549 15 331 3.2 12.9 0.00 0.00 0.00 32 1014.0
20260503215046 15 322 0.0 4.8 0.00 0.00 0.00 32 1014.0
20260503214544 15 334 3.2 16.1 0.00 0.00 0.00 32 1014.1